Weather History for Wildwood, NJ

Change the Weather History Date:

Monday, May 26, 2014

  Actual Average Record
Temperature  
Mean Temperature 78 °F -  
Max Temperature 84 °F 69 °F 87 °F (2007)
Min Temperature 71 °F 55 °F 51 °F (2005)
Cooling Degree Days 12    
Growing Degree Days 28 (Base 50)    
Moisture  
Dew Point 59 °F    
Average Humidity 51    
Maximum Humidity 60    
Minimum Humidity 42    
Precipitation  
Precipitation 0.00 in - - ()
Sea Level Pressure  
Sea Level Pressure 30.08 in    
Wind  
Wind Speed 9 mph (SW)    
Max Wind Speed 13 mph    
Max Gust Speed 17 mph    
Visibility 10 miles    
Events      
Averages and records for this station are not official NWS values.
T = Trace of Precipitation, MM = Missing Value Source: NWS Daily Summary

Daily Weather History Graph

Daily Weather History Graph

Search for Another Location

Airport:

Trip Planner

Search our weather history database for the weather conditions in past years. The results will help you decide how hot, cold, wet, or windy it might be!

Date:

Astronomy

May. 26, 2014 Rise Set
Actual Time 5:38 AM EDT 8:15 PM EDT
Civil Twilight 5:07 AM EDT 8:46 PM EDT
Nautical Twilight 4:29 AM EDT 9:24 PM EDT
Astronomical Twilight 3:45 AM EDT 10:08 PM EDT
Moon 4:17 AM EDT (5/26) 6:16 PM EDT (5/26)
Length of Visible Light 15h 38m
Length of Day
14h 36m
Waning Crescent, 5% of the Moon is Illuminated
May 26
Waning Crescent
May 28
New
Jun 5
First Quarter
Jun 13
Full
Jun 19
Last Quarter

Hourly Weather History & Observations

Time (EDT) Temp. Heat Index Dew Point Humidity Pressure Visibility Wind Dir Wind Speed Gust Speed Precip Events Conditions
12:15 AM - - - N/A% 30.12 in 10.0 mi WSW 5.8 mph - N/A   Clear
12:35 AM - - - N/A% 30.12 in 10.0 mi SW 10.4 mph - N/A   Clear
12:55 AM - - - N/A% 30.12 in 10.0 mi WSW 11.5 mph - N/A   Clear
1:15 AM - - - N/A% 30.12 in 10.0 mi WSW 11.5 mph - N/A   Clear
1:35 AM - - - N/A% 30.12 in 10.0 mi WSW 10.4 mph - N/A   Clear
1:55 AM - - - N/A% 30.12 in 10.0 mi SW 11.5 mph 16.1 mph N/A   Clear
2:15 AM - - - N/A% 30.12 in 10.0 mi SW 11.5 mph - N/A   Clear
2:35 AM - - - N/A% 30.12 in 10.0 mi WSW 10.4 mph 17.3 mph N/A   Clear
2:55 AM - - - N/A% 30.12 in 10.0 mi SW 9.2 mph - N/A   Clear
3:15 AM - - - N/A% 30.11 in 10.0 mi SW 11.5 mph - N/A   Clear
3:35 AM - - - N/A% 30.12 in 10.0 mi WSW 10.4 mph - N/A   Clear
3:55 AM - - - N/A% 30.11 in 10.0 mi WSW 9.2 mph - N/A   Clear
4:15 AM - - - N/A% 30.11 in 10.0 mi WSW 10.4 mph - N/A   Clear
4:35 AM - - - N/A% 30.11 in 10.0 mi WSW 10.4 mph - N/A   Clear
4:55 AM - - - N/A% 30.12 in 10.0 mi SW 11.5 mph - N/A   Clear
5:15 AM - - - N/A% 30.12 in 10.0 mi SW 9.2 mph - N/A   Clear
5:35 AM - - - N/A% 30.12 in 10.0 mi WSW 9.2 mph - N/A   Clear
5:55 AM - - - N/A% 30.13 in 10.0 mi WSW 9.2 mph - N/A   Clear
6:15 AM - - - N/A% 30.13 in 10.0 mi SW 8.1 mph - N/A   Clear
6:35 AM - - - N/A% 30.13 in 10.0 mi SW 9.2 mph - N/A   Clear
6:55 AM - - - N/A% 30.13 in 10.0 mi SW 10.4 mph - N/A   Clear
7:15 AM - - - N/A% 30.14 in 10.0 mi WSW 10.4 mph - N/A   Clear
7:35 AM - - - N/A% 30.14 in 10.0 mi WSW 12.7 mph - N/A   Clear
7:55 AM - - - N/A% 30.14 in 10.0 mi WSW 9.2 mph - N/A   Clear
8:15 AM - - - N/A% 30.14 in 10.0 mi WSW 11.5 mph 17.3 mph N/A   Clear
8:35 AM - - - N/A% 30.15 in 10.0 mi SW 11.5 mph - N/A   Clear
8:55 AM - - - N/A% 30.15 in 10.0 mi WSW 10.4 mph - N/A   Clear
9:15 AM - - - N/A% 30.14 in 10.0 mi WSW 11.5 mph - N/A   Clear
9:35 AM - - - N/A% 30.14 in 10.0 mi WSW 10.4 mph - N/A   Clear
9:55 AM - - - N/A% 30.13 in 10.0 mi WSW 9.2 mph - N/A   Clear
10:15 AM - - - N/A% 30.13 in 10.0 mi WSW 10.4 mph - N/A   Clear
10:35 AM - - - N/A% 30.13 in 10.0 mi WSW 10.4 mph - N/A   Clear
10:55 AM - - - N/A% 30.12 in 10.0 mi WSW 9.2 mph - N/A   Clear
11:15 AM - - - N/A% 30.12 in 10.0 mi WSW 12.7 mph - N/A   Clear
11:35 AM - - - N/A% 30.11 in 10.0 mi WSW 9.2 mph 17.3 mph N/A   Clear
11:55 AM - - - N/A% 30.11 in 10.0 mi West 9.2 mph - N/A   Clear
12:15 PM - - - N/A% 30.10 in 10.0 mi WSW 10.4 mph - N/A   Clear
12:35 PM - - - N/A% 30.09 in 10.0 mi SSW 11.5 mph - N/A   Clear
12:55 PM 82.4 °F 83.4 °F 62.6 °F 51% 30.08 in 10.0 mi SSW 10.4 mph 17.3 mph N/A   Clear
1:15 PM 82.4 °F 82.9 °F 60.8 °F 48% 30.07 in 10.0 mi WSW 11.5 mph - N/A   Clear
1:35 PM - - - N/A% 30.06 in 10.0 mi SW 11.5 mph - N/A   Clear
1:55 PM - - - N/A% 30.05 in 10.0 mi SW 10.4 mph - N/A   Clear
2:15 PM 84.2 °F 85.0 °F 62.6 °F 48% 30.05 in 10.0 mi South 10.4 mph 17.3 mph N/A   Clear
2:35 PM 82.4 °F 83.4 °F 62.6 °F 51% 30.05 in 10.0 mi South 8.1 mph - N/A   Clear
2:55 PM - - - N/A% 30.04 in 10.0 mi South 9.2 mph - N/A   Clear
3:35 PM 82.4 °F 83.4 °F 62.6 °F 51% 30.02 in 10.0 mi SSE 9.2 mph - N/A   Clear
3:55 PM 82.4 °F 83.4 °F 62.6 °F 51% 30.02 in 10.0 mi South 3.5 mph - N/A   Clear
4:15 PM 82.4 °F 83.4 °F 62.6 °F 51% 30.01 in 10.0 mi South 8.1 mph - N/A   Clear
4:35 PM 82.4 °F 83.4 °F 62.6 °F 51% 30.01 in 10.0 mi SW 6.9 mph - N/A   Clear
4:55 PM 82.4 °F 82.0 °F 57.2 °F 42% 30.00 in 10.0 mi West 9.2 mph - N/A   Clear
5:15 PM 80.6 °F 80.8 °F 57.2 °F 45% 30.00 in 10.0 mi WSW 9.2 mph - N/A   Clear
5:35 PM 80.6 °F 81.1 °F 59.0 °F 48% 30.00 in 10.0 mi WSW 9.2 mph - N/A   Clear
5:55 PM 80.6 °F 80.8 °F 57.2 °F 45% 29.99 in 10.0 mi WSW 8.1 mph - N/A   Clear
6:15 PM 80.6 °F 81.1 °F 59.0 °F 48% 29.99 in 10.0 mi WSW 9.2 mph - N/A   Clear
6:35 PM 78.8 °F - 59.0 °F 51% 29.99 in 10.0 mi WSW 5.8 mph - N/A   Clear
6:55 PM 80.6 °F 81.1 °F 59.0 °F 48% 29.99 in 10.0 mi WSW 9.2 mph - N/A   Clear
7:15 PM - - - N/A% 29.98 in 10.0 mi WSW 8.1 mph - N/A   Clear
7:35 PM 78.8 °F - 57.2 °F 47% 29.99 in 10.0 mi WSW 8.1 mph - N/A   Clear
7:55 PM 77.0 °F - 57.2 °F 50% 29.99 in 10.0 mi WSW 6.9 mph - N/A   Clear
8:15 PM 75.2 °F - 57.2 °F 53% 29.99 in 10.0 mi WSW 5.8 mph - N/A   Clear
8:35 PM 75.2 °F - 57.2 °F 53% 29.99 in 10.0 mi SW 4.6 mph - N/A   Clear
8:55 PM 73.4 °F - 57.2 °F 57% 29.99 in 10.0 mi South 5.8 mph - N/A   Clear
9:15 PM 71.6 °F - 57.2 °F 60% 29.99 in 10.0 mi SSW 4.6 mph - N/A   Clear
9:35 PM 71.6 °F - 57.2 °F 60% 29.99 in 10.0 mi SSW 3.5 mph - N/A   Clear
9:55 PM 71.6 °F - 57.2 °F 60% 30.00 in 10.0 mi SW 3.5 mph - N/A   Clear
10:15 PM - - - N/A% - 10.0 mi North - - N/A   Clear
10:35 PM - - - N/A% - - North - - N/A   Unknown
10:55 PM - - - N/A% - - North - - N/A   Unknown
11:15 PM - - - N/A% - - North - - N/A   Unknown
11:35 PM - - - N/A% - - North - - N/A   Unknown
11:55 PM - - - N/A% - - North - - N/A   Unknown